DW8849 Weather Reports


time (UTC)temp
C
wind
direction
speed
KPH
gust
KPH
rain 1hr
cm
rain 24hr
cm
rain mn
cm
humidity
%
barometer
mb
20260510095022 21 194 0.0 0.0 0.00 0.48 0.00 94 1011.5
20260510094522 21 194 0.0 1.6 0.00 0.48 0.00 94 1011.4
20260510094019 21 194 0.0 3.2 0.00 0.48 0.00 94 1011.4
20260510093519 21 194 1.6 3.2 0.00 0.48 0.00 94 1011.3
20260510093019 21 194 1.6 3.2 0.00 0.48 0.00 93 1011.3
20260510092518 21 151 0.0 1.6 0.00 0.48 0.00 93 1011.4
20260510092018 21 151 0.0 0.0 0.00 0.48 0.00 93 1011.5
20260510091539 21 151 0.0 0.0 0.00 0.48 0.00 93 1011.5
20260510091016 21 151 0.0 0.0 0.00 0.48 0.00 93 1011.5
20260510090515 21 151 0.0 0.0 0.00 0.48 0.00 93 1011.4
20260510090015 21 151 0.0 0.0 0.00 0.48 0.00 93 1011.5
20260510085515 21 151 0.0 0.0 0.00 0.48 0.00 93 1011.4
20260510085014 21 151 0.0 0.0 0.00 0.48 0.00 93 1011.4
20260510084514 21 151 0.0 1.6 0.00 0.48 0.00 93 1011.4
20260510084013 21 151 0.0 3.2 0.00 0.48 0.00 93 1011.4
20260510083520 21 151 0.0 3.2 0.00 0.48 0.00 93 1011.4
20260510083012 21 152 1.6 3.2 0.00 0.48 0.00 93 1011.5
20260510082512 21 130 1.6 3.2 0.00 0.48 0.00 92 1011.4
20260510082011 21 130 1.6 3.2 0.00 0.48 0.00 92 1011.4
20260510081528 21 163 0.0 3.2 0.00 0.48 0.00 92 1011.5
20260510081012 21 163 0.0 1.6 0.00 0.48 0.00 92 1011.5
20260510080509 22 163 0.0 3.2 0.00 0.48 0.00 92 1011.5
20260510080013 22 163 0.0 4.8 0.00 0.48 0.00 92 1011.4
20260510075512 22 163 1.6 4.8 0.00 0.48 0.00 92 1011.4
20260510075012 22 94 1.6 4.8 0.00 0.48 0.00 91 1011.6
20260510074510 22 90 1.6 4.8 0.00 0.48 0.00 91 1011.5
20260510074014 22 86 1.6 4.8 0.00 0.48 0.00 91 1011.5
20260510073513 22 85 1.6 4.8 0.00 0.48 0.00 91 1011.4
20260510073011 22 119 1.6 6.4 0.00 0.48 0.00 91 1011.5
20260510072507 22 125 3.2 6.4 0.00 0.48 0.00 90 1011.4
20260510072007 22 145 4.8 8.0 0.00 0.48 0.00 89 1011.5
20260510071511 22 141 4.8 8.0 0.00 0.48 0.00 89 1011.5
20260510071009 22 136 4.8 11.3 0.00 0.48 0.00 89 1011.5
20260510070506 22 141 6.4 11.3 0.00 0.48 0.00 89 1011.7
20260510070011 22 130 4.8 11.3 0.00 0.48 0.00 89 1011.7
20260510065506 22 111 6.4 11.3 0.00 0.48 0.00 89 1011.8
20260510065008 22 122 6.4 11.3 0.00 0.48 0.00 89 1011.8
20260510064523 22 122 4.8 9.7 0.00 0.48 0.00 90 1012.0
20260510064005 22 130 4.8 9.7 0.00 0.48 0.00 90 1011.9
20260510063505 22 136 4.8 9.7 0.00 0.48 0.00 90 1011.9
20260510063014 22 113 3.2 12.9 0.00 0.48 0.00 90 1011.8
20260510062504 22 106 8.0 12.9 0.00 0.48 0.00 90 1011.9
20260510062005 22 114 4.8 6.4 0.00 0.48 0.00 90 1012.1
20260510061505 22 103 3.2 8.0 0.00 0.48 0.00 90 1012.1
20260510061003 22 90 4.8 9.7 0.00 0.48 0.00 90 1012.0
20260510060501 22 76 4.8 11.3 0.00 0.48 0.00 90 1012.1
20260510060009 22 102 6.4 11.3 0.00 0.48 0.00 90 1012.0
20260510055501 22 85 4.8 9.7 0.00 0.48 0.00 89 1012.1
20260510055000 22 67 4.8 6.4 0.00 0.48 0.00 89 1011.9
20260510054604 22 87 1.6 4.8 0.00 0.48 0.00 89 1011.8
20260510054101 22 103 1.6 4.8 0.00 0.48 0.00 89 1011.8
20260510053602 22 74 3.2 4.8 0.00 0.48 0.00 88 1011.9
20260510053100 22 85 3.2 6.4 0.00 0.48 0.00 88 1011.9
20260510052559 22 85 3.2 9.7 0.00 0.48 0.00 88 1011.9
20260510052058 22 71 6.4 9.7 0.00 0.48 0.00 87 1011.9
20260510051607 22 79 3.2 9.7 0.00 0.48 0.00 87 1011.8
20260510051058 22 111 4.8 9.7 0.00 0.48 0.00 86 1011.6
20260510050557 23 126 4.8 9.7 0.00 0.48 0.00 86 1011.5
20260510050052 23 123 4.8 12.9 0.00 0.48 0.00 85 1011.5
20260510045552 23 105 6.4 16.1 0.00 0.48 0.48 84 1011.6
20260510045052 23 141 9.7 16.1 0.00 0.48 0.48 84 1011.3
20260510044602 23 178 9.7 16.1 0.00 0.48 0.48 84 1011.1
20260510044052 23 196 11.3 17.7 0.00 0.48 0.48 85 1011.0
20260510043552 23 184 9.7 17.7 0.00 0.48 0.48 85 1010.9
20260510043051 23 178 8.0 12.9 0.00 0.48 0.48 85 1011.0
20260510042551 23 182 9.7 11.3 0.00 0.48 0.48 85 1011.0
20260510042150 22 161 8.0 11.3 0.00 0.48 0.48 85 1011.1
20260510041603 22 143 8.0 14.5 0.00 0.48 0.48 85 1011.2
20260510041050 22 166 9.7 14.5 0.00 0.48 0.48 85 1011.2
20260510040550 22 158 11.3 14.5 0.00 0.48 0.48 85 1011.2
20260510040048 22 159 8.0 12.9 0.00 0.48 0.48 85 1011.1
20260510035550 23 135 8.0 11.3 0.00 0.48 0.48 84 1011.2
20260510035049 23 140 6.4 9.7 0.00 0.48 0.48 84 1011.1
20260510034557 23 144 4.8 8.0 0.00 0.48 0.48 84 1011.2
20260510034049 23 133 4.8 8.0 0.00 0.48 0.48 83 1011.1
20260510033548 23 123 3.2 8.0 0.00 0.48 0.48 83 1011.1
20260510033049 23 138 4.8 8.0 0.00 0.48 0.48 83 1011.0
20260510032548 23 135 4.8 8.0 0.00 0.48 0.48 83 1011.0
20260510032047 23 142 3.2 6.4 0.00 0.48 0.48 83 1011.0
20260510031551 23 120 3.2 6.4 0.00 0.48 0.48 82 1010.9
20260510031046 23 127 3.2 6.4 0.00 0.48 0.48 81 1010.8
20260510030546 23 117 3.2 6.4 0.00 0.48 0.48 81 1010.8
20260510030055 23 148 1.6 4.8 0.00 0.48 0.48 80 1010.7
20260510025546 23 117 3.2 6.4 0.00 0.48 0.48 79 1010.6
20260510025048 24 121 3.2 11.3 0.00 0.48 0.48 78 1010.5
20260510024551 24 141 6.4 8.0 0.00 0.48 0.48 77 1010.4
20260510024045 24 157 6.4 9.7 0.00 0.48 0.48 76 1010.2
20260510023548 25 154 4.8 9.7 0.00 0.48 0.48 75 1010.0
20260510023045 25 144 4.8 11.3 0.00 0.48 0.48 75 1009.9
20260510022545 25 155 6.4 14.5 0.00 0.48 0.48 74 1009.8
20260510022047 25 146 8.0 16.1 0.00 0.48 0.48 73 1009.5
20260510021545 25 165 9.7 19.3 0.00 0.48 0.48 72 1009.3
20260510021045 25 170 12.9 19.3 0.00 0.48 0.48 72 1009.1
20260510020544 25 155 11.3 16.1 0.00 0.48 0.48 71 1009.0
20260510020044 25 174 12.9 16.1 0.00 0.48 0.48 71 1008.8
20260510015544 25 174 14.5 17.7 0.00 0.48 0.48 70 1008.8
20260510015046 26 165 14.5 16.1 0.00 0.48 0.48 70 1009.0
20260510014543 26 179 9.7 11.3 0.00 0.48 0.48 69 1009.2
20260510014043 26 167 6.4 9.7 0.00 0.48 0.48 69 1009.4
20260510013543 26 169 4.8 11.3 0.00 0.48 0.48 69 1009.4
20260510013051 26 157 6.4 12.9 0.00 0.48 0.48 69 1009.4
20260510012542 26 153 8.0 12.9 0.00 0.48 0.48 69 1009.5
20260510012042 26 175 8.0 12.9 0.00 0.48 0.48 70 1009.4
20260510011545 26 157 9.7 12.9 0.00 0.48 0.48 70 1009.4
20260510011042 26 149 8.0 12.9 0.00 0.48 0.48 70 1009.4
20260510010541 27 158 9.7 12.9 0.00 0.48 0.48 69 1009.4
20260510010042 27 153 9.7 12.9 0.00 0.48 0.48 69 1009.4
20260510005541 27 159 8.0 11.3 0.00 0.48 0.48 68 1009.5
20260510005043 27 153 6.4 11.3 0.00 0.48 0.48 68 1009.6
20260510004540 27 151 6.4 14.5 0.00 0.48 0.48 67 1009.4
20260510004040 28 128 11.3 19.3 0.00 0.48 0.48 65 1009.4
20260510003551 28 162 14.5 19.3 0.00 0.48 0.48 65 1009.4
20260510003052 28 159 12.9 22.5 0.00 0.48 0.48 65 1009.3
20260510002539 28 150 14.5 22.5 0.00 0.48 0.48 64 1009.2
20260510002040 28 157 12.9 22.5 0.00 0.48 0.48 63 1009.1
20260510001539 29 157 14.5 22.5 0.00 0.48 0.48 63 1009.0
20260510001039 29 156 14.5 22.5 0.00 0.48 0.48 64 1008.9
20260510000539 29 139 16.1 22.5 0.00 0.48 0.48 63 1008.9
20260510000038 29 130 17.7 27.4 0.00 0.48 0.48 63 1008.9
20260509235538 30 126 19.3 27.4 0.00 0.48 0.48 62 1008.8
20260509235038 30 142 17.7 25.7 0.00 0.48 0.48 62 1008.8
20260509234555 30 149 16.1 24.1 0.00 0.48 0.48 61 1008.8
20260509234037 30 152 16.1 25.7 0.00 0.48 0.48 61 1008.7
20260509233538 30 146 17.7 25.7 0.00 0.48 0.48 62 1008.8
20260509233044 30 159 20.9 27.4 0.00 0.48 0.48 60 1008.8
20260509232540 31 146 16.1 25.7 0.00 0.48 0.48 59 1008.8
20260509232037 31 131 17.7 25.7 0.00 0.48 0.48 58 1008.7
20260509231552 31 142 17.7 27.4 0.00 0.48 0.48 60 1008.7
20260509231038 31 147 20.9 27.4 0.00 0.48 0.48 57 1008.7
20260509230536 31 136 19.3 24.1 0.00 0.48 0.48 57 1008.7
20260509230036 31 139 14.5 24.1 0.00 0.48 0.48 57 1008.7
20260509225536 31 134 12.9 17.7 0.00 0.48 0.48 57 1008.7
20260509225038 31 167 9.7 19.3 0.00 0.48 0.48 55 1008.7
20260509224535 31 146 11.3 19.3 0.00 0.48 0.48 55 1008.6
20260509224038 32 126 11.3 19.3 0.00 0.48 0.48 55 1008.6
20260509223535 32 183 8.0 16.1 0.00 0.48 0.48 56 1008.6
20260509223037 32 121 4.8 12.9 0.00 0.48 0.48 55 1008.6
20260509222538 31 92 0.0 14.5 0.00 0.48 0.48 55 1008.6
20260509222036 31 115 4.8 17.7 0.00 0.48 0.48 57 1008.7
20260509221534 32 107 6.4 16.1 0.00 0.48 0.48 57 1008.7
20260509221036 31 98 1.6 9.7 0.00 0.48 0.48 54 1008.7
20260509220531 31 157 3.2 9.7 0.00 0.48 0.48 55 1008.7
20260509220031 31 157 3.2 12.9 0.00 0.48 0.48 58 1008.8
20260509215532 31 70 1.6 16.1 0.00 0.48 0.48 56 1008.7
20260509215031 31 134 6.4 19.3 0.00 0.48 0.48 56 1008.7
20260509214533 31 159 11.3 19.3 0.00 0.48 0.48 55 1008.8
20260509214035 31 128 4.8 17.7 0.00 0.48 0.48 58 1008.7
20260509213531 31 159 11.3 17.7 0.00 0.48 0.48 56 1008.7
20260509213031 31 144 9.7 12.9 0.00 0.48 0.48 56 1008.8
20260509212530 31 55 4.8 12.9 0.00 0.48 0.48 56 1008.7
20260509212029 31 43 4.8 12.9 0.00 0.48 0.48 56 1008.8
20260509211531 31 44 8.0 16.1 0.00 0.48 0.48 58 1008.9
20260509211029 31 64 8.0 16.1 0.00 0.48 0.48 57 1008.9
20260509210528 31 36 6.4 14.5 0.00 0.48 0.48 56 1008.9
20260509210030 31 34 4.8 16.1 0.00 0.48 0.48 57 1008.8
20260509205526 31 53 1.6 12.9 0.00 0.48 0.48 57 1008.9
20260509205026 31 17 3.2 12.9 0.00 0.48 0.48 57 1008.9
20260509204530 31 36 3.2 11.3 0.00 0.48 0.48 59 1008.9
20260509204029 31 122 3.2 11.3 0.00 0.48 0.48 57 1009.0
20260509203525 31 277 0.0 14.5 0.00 0.48 0.48 57 1009.0
20260509203034 31 360 6.4 14.5 0.00 0.48 0.48 57 1009.1
20260509202524 31 275 4.8 14.5 0.00 0.48 0.48 60 1009.1
20260509202026 31 336 8.0 14.5 0.00 0.48 0.48 59 1009.1
20260509201522 31 360 8.0 14.5 0.00 0.48 0.48 63 1009.2
20260509201021 30 271 1.6 12.9 0.00 0.48 0.48 60 1009.3
20260509200520 30 61 3.2 14.5 0.00 0.48 0.48 62 1009.3
20260509200020 30 319 8.0 17.7 0.00 0.48 0.48 62 1009.3
20260509195519 30 348 14.5 17.7 0.00 0.48 0.48 63 1009.3
20260509195022 30 355 11.3 17.7 0.00 0.48 0.48 63 1009.4
20260509194519 30 336 12.9 17.7 0.00 0.48 0.48 64 1009.5
20260509194017 30 355 3.2 17.7 0.00 0.48 0.48 63 1009.5
20260509193516 30 343 9.7 19.3 0.00 0.48 0.48 65 1009.6
20260509193017 30 10 12.9 19.3 0.00 0.48 0.48 66 1009.6
20260509192515 30 360 4.8 16.1 0.00 0.48 0.48 67 1009.7
20260509192018 30 331 9.7 17.7 0.00 0.48 0.48 66 1009.8
20260509191515 30 349 8.0 19.3 0.00 0.48 0.48 68 1009.8
20260509191018 29 335 8.0 19.3 0.00 0.48 0.48 67 1009.8
20260509190511 29 311 6.4 14.5 0.00 0.48 0.48 69 1009.8
20260509190017 29 275 4.8 14.5 0.00 0.48 0.48 69 1009.9
20260509185510 28 360 4.8 14.5 0.00 0.48 0.48 69 1010.0
20260509185010 28 336 3.2 17.7 0.00 0.48 0.48 70 1010.0
20260509184520 28 324 8.0 17.7 0.00 0.48 0.48 68 1010.2
20260509184009 28 19 6.4 12.9 0.00 0.48 0.48 70 1010.3
20260509183508 28 346 4.8 19.3 0.00 0.48 0.48 71 1010.4
20260509183007 28 294 6.4 19.3 0.00 0.48 0.48 69 1010.4
20260509182507 28 355 14.5 19.3 0.00 0.48 0.48 71 1010.3
20260509182005 28 52 1.6 8.0 0.00 0.48 0.48 70 1010.4
20260509181505 27 187 3.2 8.0 0.00 0.48 0.48 69 1010.6
20260509181006 27 337 4.8 14.5 0.00 0.48 0.48 72 1010.7
20260509180503 27 71 6.4 14.5 0.00 0.48 0.48 72 1010.7
20260509180005 27 338 4.8 14.5 0.00 0.48 0.48 72 1010.7
20260509175505 27 13 8.0 14.5 0.00 0.48 0.48 72 1010.6
20260509175000 27 21 3.2 16.1 0.00 0.48 0.48 73 1010.7
20260509174600 27 24 8.0 16.1 0.00 0.48 0.48 75 1010.8
20260509174059 27 360 3.2 9.7 0.00 0.48 0.48 74 1010.8
20260509173557 27 12 4.8 14.5 0.00 0.48 0.48 76 1010.9
20260509173102 27 351 9.7 14.5 0.00 0.48 0.48 77 1011.0
20260509172557 27 360 6.4 12.9 0.00 0.48 0.48 77 1011.0
20260509172056 27 339 4.8 12.9 0.00 0.48 0.48 76 1011.0
20260509171556 27 19 8.0 14.5 0.00 0.48 0.48 76 1011.1
20260509171057 27 58 6.4 14.5 0.00 0.48 0.48 79 1011.2
20260509170555 27 360 3.2 12.9 0.00 0.48 0.48 78 1011.1
20260509165555 26 346 3.2 9.7 0.00 0.48 0.48 77 1010.8
20260509165052 26 5 3.2 12.9 0.00 0.48 0.48 80 1010.6
20260509164553 26 61 4.8 9.7 0.00 0.48 0.48 81 1010.7
20260509164055 26 355 4.8 9.7 0.00 0.48 0.48 81 1010.6
20260509163551 26 27 4.8 9.7 0.00 0.48 0.48 80 1010.7
20260509163102 26 346 4.8 8.0 0.00 0.48 0.48 80 1010.5
20260509162550 26 360 0.0 6.4 0.00 0.48 0.48 79 1010.7
20260509162050 26 23 3.2 6.4 0.00 0.48 0.48 82 1010.7
20260509161553 26 128 0.0 3.2 0.00 0.48 0.48 81 1010.5
20260509161051 25 89 0.0 3.2 0.00 0.48 0.48 82 1010.6
20260509160547 25 329 1.6 6.4 0.00 0.48 0.48 83 1010.5
20260509160046 25 5 1.6 6.4 0.00 0.48 0.48 83 1010.4
20260509155546 25 351 3.2 6.4 0.00 0.48 0.48 84 1010.6
20260509155049 25 5 1.6 4.8 0.00 0.48 0.48 84 1010.6
20260509154545 25 147 0.0 4.8 0.00 0.48 0.48 85 1010.5
20260509154044 25 184 1.6 4.8 0.00 0.48 0.48 85 1010.3
20260509153543 25 185 0.0 4.8 0.00 0.48 0.48 85 1010.3
20260509153045 25 184 0.0 6.4 0.00 0.48 0.48 86 1010.2
20260509152543 25 183 3.2 8.0 0.00 0.48 0.48 85 1010.2
20260509152043 25 272 1.6 6.4 0.00 0.48 0.48 86 1010.5
20260509151542 25 272 1.6 6.4 0.00 0.48 0.48 86 1010.7
20260509151041 25 294 1.6 4.8 0.00 0.48 0.48 85 1010.8
20260509150541 25 244 0.0 3.2 0.00 0.48 0.48 84 1011.0
20260509150039 25 244 1.6 3.2 0.00 0.48 0.48 83 1011.1
20260509145539 25 244 0.0 3.2 0.00 0.48 0.48 83 1011.1
20260509145038 25 244 1.6 9.7 0.00 0.48 0.48 83 1010.9
20260509144536 24 182 6.4 9.7 0.00 0.48 0.48 83 1010.7
20260509144038 24 194 4.8 12.9 0.00 0.48 0.48 83 1010.5
20260509143535 24 168 9.7 12.9 0.00 0.48 0.48 84 1010.6
20260509143045 24 214 6.4 9.7 0.00 0.48 0.48 88 1010.9
20260509142535 24 223 6.4 9.7 0.00 0.48 0.48 88 1010.9
20260509142036 24 227 4.8 11.3 0.00 0.48 0.48 87 1011.0
20260509141535 24 239 6.4 11.3 0.00 0.48 0.48 87 1011.0
20260509141034 24 257 6.4 11.3 0.00 0.48 0.48 86 1010.9
20260509140533 24 305 3.2 11.3 0.00 0.48 0.48 87 1010.8
20260509140032 23 293 4.8 11.3 0.00 0.48 0.48 88 1011.1
20260509135534 23 279 6.4 16.1 0.00 0.48 0.48 89 1011.0
20260509135030 23 280 11.3 25.7 0.00 0.48 0.48 89 1011.3
20260509134531 23 327 12.9 25.7 0.00 0.48 0.48 89 1011.2
20260509134030 23 350 4.8 19.3 0.00 0.48 0.48 90 1011.2
20260509133529 23 215 8.0 25.7 0.00 0.48 0.48 91 1010.9
20260509133029 23 311 16.1 25.7 0.00 0.48 0.48 91 1011.0
20260509132529 23 306 12.9 24.1 0.00 0.48 0.48 91 1010.8
20260509132029 23 313 9.7 24.1 0.00 0.48 0.48 91 1010.3
20260509131528 23 202 17.7 24.1 0.00 0.48 0.48 91 1009.6
20260509131028 23 175 14.5 30.6 0.00 0.48 0.48 92 1009.1
20260509130527 23 164 19.3 40.2 0.00 0.48 0.48 92 1008.8
20260509130029 23 143 27.4 41.8 0.00 0.48 0.48 93 1007.9
20260509125533 23 130 32.2 41.8 0.03 0.48 0.48 93 1007.6
20260509125023 23 155 29.0 35.4 0.05 0.48 0.48 94 1009.0
20260509124534 23 164 19.3 37.0 0.05 0.48 0.48 94 1009.6
20260509124023 23 130 25.7 41.8 0.08 0.48 0.48 95 1009.3
20260509123523 23 149 32.2 41.8 0.13 0.48 0.48 95 1008.8
20260509123022 23 137 29.0 37.0 0.15 0.48 0.48 96 1008.7
20260509122521 23 120 25.7 37.0 0.18 0.48 0.48 96 1009.1
20260509122020 23 133 24.1 29.0 0.20 0.48 0.48 96 1009.6
20260509121528 23 131 20.9 27.4 0.20 0.48 0.48 96 1010.4
20260509121018 23 165 16.1 24.1 0.20 0.48 0.48 97 1010.9
20260509120517 23 169 12.9 17.7 0.23 0.48 0.48 97 1011.2
20260509120016 23 157 8.0 12.9 0.25 0.48 0.48 97 1011.6
20260509115516 23 164 9.7 16.1 0.30 0.46 0.46 97 1011.9
20260509115015 23 192 11.3 16.1 0.33 0.43 0.43 97 1012.2
20260509114536 23 198 9.7 14.5 0.38 0.43 0.43 97 1012.2
20260509114015 23 180 9.7 12.9 0.36 0.38 0.38 97 1012.3
20260509113516 23 187 9.7 16.1 0.33 0.36 0.36 97 1012.4
20260509113016 23 181 9.7 16.1 0.33 0.33 0.33 97 1012.4
20260509112514 23 182 6.4 12.9 0.30 0.30 0.30 97 1012.4
20260509112021 23 213 8.0 11.3 0.28 0.28 0.28 97 1012.4
20260509111513 23 192 4.8 12.9 0.28 0.28 0.28 97 1012.1
20260509111012 23 147 9.7 12.9 0.28 0.28 0.28 97 1011.7
20260509110514 23 152 3.2 9.7 0.25 0.25 0.25 97 1011.7
20260509110013 23 169 3.2 9.7 0.20 0.20 0.20 97 1011.7
20260509105510 23 175 8.0 9.7 0.15 0.15 0.15 97 1011.5
20260509105009 23 171 3.2 4.8 0.10 0.10 0.10 97 1011.3
20260509104507 23 245 1.6 6.4 0.03 0.03 0.03 96 1011.1
20260509104007 23 318 3.2 8.0 0.03 0.03 0.03 96 1010.8
20260509103506 23 271 4.8 8.0 0.03 0.03 0.03 96 1010.7
20260509103006 23 293 3.2 4.8 0.00 0.00 0.00 96 1010.4
20260509102506 23 211 1.6 4.8 0.00 0.00 0.00 96 1010.1
20260509102006 23 157 1.6 4.8 0.00 0.00 0.00 97 1009.9
20260509101507 23 180 1.6 4.8 0.00 0.00 0.00 97 1010.0
20260509101005 23 164 1.6 4.8 0.00 0.00 0.00 96 1010.0
20260509100507 23 164 1.6 4.8 0.00 0.00 0.00 96 1009.8
20260509100005 23 164 3.2 4.8 0.00 0.00 0.00 96 1009.6
20260509095510 23 177 0.0 4.8 0.00 0.00 0.00 96 1009.6